Theta_e
291 291 291 292 292 292 292 292 292 292 292 291 291 291 291 291 292 291 291 291 292 291 292 293 293 294 294 294 295 295 297 298 298 301 303 305 309 312
290 290 290 290 291 291 291 291 291 290 290 290 291 290 289 290 289 290 290 290 291 291 291 291 292 293 294 294 295 295 297 298 298 298 301 304 307 311
288 288 289 289 290 290 290 290 289 290 289 289 288 288 289 288 288 289 289 290 290 290 290 290 291 291 292 293 293 294 296 296 297 300 301 303 306 308
287 288 288 289 289 289 289 289 288 288 287 287 288 288 288 288 288 288 289 289 289 289 288 289 288 289 290 291 292 292 294 297 298 300 302 303 303 304
287 287 288 288 288 289 288 287 287 287 288 288 288 288 288 288 288 288 288 288 287 286 286 287 288 289 290 291 292 293 295 294 295 296 298 299 301 305
286 287 287 287 288 288 288 287 288 288 288 287 288 288 287 287 287 287 286 285 285 285 286 287 288 288 289 290 290 291 292 293 294 296 298 298 301 303
286 286 286 287 288 287 288 288 288 287 288 288 287 287 286 286 285 285 284 285 285 285 286 285 286 286 287 288 290 291 292 294 294 295 297 298 299 301
285 286 286 287 287 287 287 287 287 288 288 287 286 286 285 285 284 284 284 284 286 285 284 285 285 286 288 289 289 292 292 291 292 293 295 296 297 299
285 286 286 286 286 286 286 287 288 287 285 284 284 283 284 285 284 285 285 285 284 284 285 285 286 287 287 287 288 289 290 291 290 292 294 295 296 299
285 285 285 285 285 286 287 288 286 285 284 283 283 284 284 284 284 284 284 284 284 284 285 286 285 285 285 286 286 286 288 290 292 291 291 294 295 296
285 285 285 286 286 286 287 286 285 284 282 283 284 284 283 282 283 283 283 283 283 283 283 284 284 284 284 285 286 287 289 287 287 288 289 291 293 294
285 285 285 285 285 286 286 285 283 282 283 283 281 280 281 281 282 282 282 283 282 282 282 283 283 284 285 285 286 285 286 287 286 287 289 291 292 293
285 285 285 284 286 286 284 283 283 283 282 280 280 280 281 281 281 281 281 281 282 282 282 283 284 284 284 285 285 286 285 285 285 285 288 290 292 300
285 284 284 285 285 283 282 282 282 282 280 280 280 281 281 280 280 280 280 281 281 282 282 283 283 284 285 286 284 284 284 284 285 288 289 292 295 301
284 284 285 284 283 281 281 281 280 279 280 280 281 280 280 280 280 280 281 282 282 282 283 284 283 284 284 283 282 283 285 284 286 289 290 290 292 295
284 285 283 281 281 280 280 279 279 279 280 280 280 280 280 280 280 281 281 281 283 284 283 283 282 281 282 283 283 284 284 284 288 289 290 291 292 295
285 282 280 280 280 280 279 279 279 279 280 279 279 279 280 280 280 280 281 282 283 284 283 283 281 280 281 282 284 286 287 287 289 290 291 291 291 292
282 280 280 280 279 279 279 279 279 279 279 279 279 279 279 280 280 281 282 283 282 283 282 282 281 280 282 283 284 285 286 287 287 289 291 291 291 290
280 280 279 279 279 278 278 279 279 279 279 279 279 279 279 279 281 281 282 283 282 282 283 282 280 280 282 283 283 286 286 287 288 288 289 291 292 291
279 279 279 278 278 278 278 279 279 279 278 279 279 279 279 280 281 282 282 282 282 283 283 283 281 281 280 280 282 285 286 286 287 287 288 290 291 292
279 279 278 278 278 278 278 278 278 278 279 278 279 279 280 280 282 282 283 283 283 282 283 283 283 284 283 284 285 285 285 287 287 286 287 288 289 291
278 278 278 278 278 278 278 278 278 278 278 278 279 279 280 281 282 281 282 282 282 282 283 283 284 283 283 283 284 284 285 286 287 288 288 287 286 288
277 277 277 277 278 277 277 277 277 278 278 279 279 280 281 282 281 281 283 283 282 283 284 284 284 283 283 284 284 285 286 285 286 286 287 288 289 289
Wind_Speed
29 29 28 28 29 29 27 24 15 15 16 27 30 32 31 33 33 35 38 38 41 45 41 43 45 44 45 45 45 45 45 44 44 43 40 36 30 31
27 28 32 30 29 29 29 24 22 18 15 33 29 33 38 33 38 36 38 39 39 39 42 42 43 44 43 43 42 44 43 42 41 40 39 36 33 31
28 29 30 31 29 26 26 26 23 21 11 31 35 37 37 37 40 37 34 34 37 34 38 41 42 44 44 44 44 43 42 44 41 37 36 35 33 29
28 29 30 29 29 28 26 24 21 23 25 17 33 33 35 38 36 39 34 32 32 32 39 42 47 45 44 44 45 45 43 39 35 34 27 30 28 30
28 29 30 29 30 26 26 25 27 28 26 24 31 33 33 34 38 36 32 31 32 36 40 38 39 40 40 40 41 42 36 35 38 34 32 29 29 26
28 29 30 30 28 27 28 28 24 24 26 27 27 26 30 34 28 27 31 34 37 33 38 34 34 40 38 37 40 40 36 34 35 33 31 31 29 26
28 30 30 28 30 31 29 27 27 29 27 23 24 25 26 27 23 29 31 34 38 34 26 38 32 34 37 36 33 35 33 30 33 34 28 27 29 29
30 30 30 26 27 29 30 35 37 32 27 26 27 20 30 31 26 29 31 25 15 25 29 36 32 35 31 30 33 35 32 35 33 35 32 29 30 31
28 30 30 25 28 31 35 33 28 26 34 35 32 32 29 28 32 33 28 24 24 34 32 28 31 24 30 34 34 34 36 34 37 34 29 29 29 29
27 29 28 31 32 35 35 30 26 31 31 33 33 32 33 35 34 33 34 34 34 29 25 14 23 30 31 30 33 39 36 33 23 24 29 29 29 28
27 27 28 34 34 37 37 31 32 30 31 33 33 34 36 37 35 35 26 20 14 22 25 25 27 29 31 31 33 28 24 31 34 34 31 31 32 33
26 23 28 32 37 38 37 35 29 31 34 29 28 31 30 32 31 29 29 17 12 14 24 22 26 22 10 28 13 27 28 25 32 28 30 32 35 34
26 28 28 34 38 37 40 29 31 40 31 30 30 30 30 28 27 29 29 29 25 20 33 30 25 25 16 9 21 20 22 28 30 30 29 27 27 30
29 29 34 39 36 38 32 36 37 35 31 29 28 27 28 30 31 33 34 34 34 36 39 37 21 24 16 8 8 21 25 27 25 25 21 16 7 5
31 36 39 32 32 29 32 34 33 29 27 26 25 28 28 32 33 31 31 31 31 33 30 23 22 19 16 7 7 15 18 16 27 20 16 16 17 13
32 30 28 28 28 30 29 29 28 27 29 27 27 30 30 28 28 28 27 29 27 17 20 19 20 16 13 17 18 15 16 4 19 17 13 19 26 22
37 25 24 26 26 26 28 28 28 29 27 27 27 28 28 27 27 28 25 24 19 13 18 19 21 19 14 15 10 14 10 7 13 13 12 17 27 26
28 24 24 24 24 26 27 29 29 30 27 29 27 27 25 25 25 26 25 16 15 17 17 19 20 15 3 4 10 14 10 9 15 19 18 18 21 28
23 22 23 24 26 28 28 29 29 30 30 27 27 26 26 24 26 23 22 16 16 18 17 15 14 7 5 4 8 19 8 12 15 22 20 18 17 22
22 23 23 26 27 28 29 29 29 30 29 27 27 26 25 24 23 20 20 14 14 16 12 11 12 11 3 3 3 15 15 14 16 17 18 24 29 34
24 24 26 27 27 30 30 29 29 29 30 28 26 26 26 24 22 21 17 20 19 13 7 7 15 12 10 7 5 10 22 28 24 18 15 18 13 21
24 27 28 28 30 30 30 29 28 29 28 27 27 27 26 22 19 21 19 14 15 14 8 11 13 12 13 8 6 6 14 22 26 25 23 18 4 3
27 27 29 31 31 31 29 28 28 29 29 28 27 27 24 20 21 19 17 15 14 12 11 8 13 14 11 9 9 9 15 17 18 23 23 19 25 26
Wind_Direction
305 302 302 301 300 297 297 302 292 304 303 307 308 308 313 312 310 315 311 308 306 304 302 304 303 302 301 298 299 298 294 294 290 289 291 288 285 272
306 305 304 300 299 299 298 299 304 301 300 303 308 311 310 309 311 310 306 303 303 301 301 301 300 297 298 298 297 297 296 294 291 288 286 282 276 272
306 309 303 304 302 301 308 304 303 298 299 302 304 306 308 308 307 306 303 299 297 297 300 305 302 301 298 297 295 296 293 297 292 290 286 278 273 273
315 310 306 307 305 306 304 304 306 306 297 295 300 303 302 303 302 303 303 301 297 298 302 300 299 296 296 297 296 293 293 295 299 291 291 280 285 278
312 310 306 307 304 301 307 307 300 296 291 291 294 296 299 302 299 301 301 303 300 305 303 300 302 300 296 297 297 294 293 302 298 298 292 290 286 279
310 307 305 302 298 307 304 297 296 298 297 292 290 298 303 304 307 305 306 305 304 305 299 297 301 299 298 299 297 295 293 293 294 289 291 294 292 292
312 306 303 302 303 304 303 309 309 305 301 296 303 300 304 302 308 304 302 305 300 298 301 300 302 299 294 297 293 295 290 296 296 295 291 293 290 289
309 306 305 306 305 310 310 306 303 310 310 311 309 304 302 300 301 302 299 297 296 311 305 298 297 291 292 295 300 297 299 298 299 297 292 285 286 284
306 308 311 314 317 313 306 305 301 311 311 308 304 300 303 299 299 296 295 297 296 300 298 292 294 286 299 297 298 301 303 295 294 289 287 285 277 272
307 309 311 312 312 309 309 310 309 312 309 306 301 301 299 303 304 303 303 299 293 294 297 290 300 298 298 297 294 296 287 286 281 296 295 285 282 279
303 305 309 312 310 313 316 313 311 313 309 308 302 305 307 305 305 305 301 300 297 300 303 288 294 295 294 290 283 284 293 304 298 295 285 277 273 273
308 309 311 313 314 315 319 315 318 312 315 319 317 311 307 303 304 301 299 294 295 296 299 292 293 295 296 291 287 294 289 290 299 293 287 281 271 260
319 315 312 313 314 321 320 326 315 318 324 321 313 309 308 308 306 302 297 292 290 288 292 294 292 291 282 289 283 292 301 304 300 297 294 292 282 248
313 312 311 314 322 323 326 321 321 326 321 312 309 310 314 311 308 304 300 295 289 283 289 286 279 282 285 296 302 309 306 305 303 304 322 327 313 182
315 311 311 319 326 328 323 325 324 318 314 311 311 311 310 307 305 305 307 306 304 300 300 311 318 300 307 298 294 303 313 312 318 331 357 12 20 18
313 315 325 328 327 324 323 322 319 317 316 313 310 311 311 312 312 314 313 312 313 309 322 318 327 324 306 294 293 294 296 291 327 347 3 40 41 43
327 332 333 330 325 325 324 321 319 319 317 315 314 313 315 316 316 318 315 322 325 329 330 327 328 320 287 276 311 335 325 327 2 14 29 54 44 43
338 332 326 325 323 323 321 319 318 318 317 317 316 315 315 317 317 322 323 330 327 326 328 334 340 343 339 242 349 342 343 3 32 42 48 64 58 55
329 325 324 323 322 320 317 316 316 318 318 318 316 316 316 314 319 315 316 325 325 324 326 339 350 5 10 7 329 20 22 32 59 54 51 56 69 67
328 325 323 323 319 316 315 316 317 319 320 319 320 317 314 313 314 317 319 327 329 331 327 349 355 353 345 330 324 30 61 52 63 64 57 65 73 80
326 325 323 318 316 315 315 317 318 319 322 318 315 314 313 313 316 321 326 335 339 327 334 359 351 358 34 8 47 47 46 59 68 61 63 63 64 72
326 323 320 318 316 316 317 318 318 319 318 316 314 314 315 318 325 324 325 330 331 328 337 11 37 52 40 42 48 44 50 56 69 69 69 64 45 64
323 321 319 316 316 316 317 318 317 316 315 314 314 315 317 324 324 321 328 337 336 346 13 25 47 68 64 45 46 50 58 60 58 60 60 85 94 96